Weather History for KRBO - December, 2012

Change the Weather History Date:

Friday, December 7, 2012

  Actual Average (KCRP) Record (KCRP)
Temperature  
Mean Temperature 74 °F 60 °F  
Max Temperature 86 °F 70 °F 88 °F (1924)
Min Temperature 62 °F 50 °F 24 °F (1950)
Degree Days  
Heating Degree Days 0 7  
Month to date heating degree days 45  
Since 1 July heating degree days 146  
Cooling Degree Days 9 2  
Month to date cooling degree days 14  
Year to date cooling degree days 3489  
Growing Degree Days 24 (Base 50)    
Moisture  
Dew Point 65 °F    
Average Humidity 78    
Maximum Humidity 97    
Minimum Humidity 45    
Precipitation  
Precipitation 0.00 in 0.05 in 1.98 in (1960)
Month to date precipitation 0.35  
Year to date precipitation 30.28  
Snow  
Snow 0.00 in - - ()
Month to date snowfall  
Since 1 July snowfall  
Snow Depth -    
Sea Level Pressure  
Sea Level Pressure 29.83 in    
Wind  
Wind Speed 9 mph (SE)    
Max Wind Speed 18 mph    
Max Gust Speed 24 mph    
Visibility 8 miles    
Events Fog    
T = Trace of Precipitation, MM = Missing Value Source: NWS Daily Summary

Daily Weather History Graph

Daily Weather History Graph

Search for Another Location

Airport or City:

Trip Planner

Search our weather history database for the weather conditions in past years. The results will help you decide how hot, cold, wet, or windy it might be!

Date:

Astronomy

Dec. 07, 2012 Rise Set
Actual Time 7:09 AM CST 5:35 PM CST
Civil Twilight 6:43 AM CST 6:01 PM CST
Nautical Twilight 6:14 AM CST 6:30 PM CST
Astronomical Twilight 5:45 AM CST 6:59 PM CST
Moon 12:58 AM CST (12/7) 1:08 PM CST (12/7)
Length of Visible Light 11h 17m
Length of Day
10h 26m
Last Quarter, 38% of the Moon is Illuminated
Dec 7
Last Quarter
Dec 13
New
Dec 19
First Quarter
Dec 28
Full
Jan 4
Last Quarter

Hourly Weather History & Observations

Time (CST) Temp. Heat Index Dew Point Humidity Pressure Visibility Wind Dir Wind Speed Gust Speed Precip Events Conditions
12:15 AM 62.6 °F - 60.4 °F 93% 29.87 in 10.0 mi SE 5.8 mph - N/A   Clear
12:35 AM 62.6 °F - 60.6 °F 93% 29.86 in 10.0 mi SE 6.9 mph - N/A   Clear
12:55 AM 62.8 °F - 61.0 °F 94% 29.85 in 10.0 mi SE 6.9 mph - N/A   Clear
1:15 AM 63.5 °F - 61.7 °F 94% 29.85 in 10.0 mi SE 6.9 mph - N/A   Clear
1:35 AM 63.7 °F - 62.1 °F 94% 29.85 in 7.0 mi SE 5.8 mph - N/A   Clear
1:55 AM 63.9 °F - 62.6 °F 96% 29.85 in 7.0 mi SE 5.8 mph - N/A   Clear
2:15 AM 63.5 °F - 62.1 °F 95% 29.85 in 2.0 mi ESE 5.8 mph - N/A   Overcast
2:35 AM 62.2 °F - 61.0 °F 96% 29.84 in 0.2 mi ESE 5.8 mph - N/A Fog Fog
2:55 AM 62.4 °F - 61.2 °F 96% 29.84 in 0.2 mi ESE 5.8 mph - N/A Fog Fog
3:15 AM 62.4 °F - 61.2 °F 96% 29.84 in 0.5 mi ESE 5.8 mph - N/A Fog Fog
3:35 AM 62.6 °F - 61.7 °F 97% 29.84 in 0.5 mi ESE 6.9 mph - N/A Fog Fog
3:55 AM 62.8 °F - 61.7 °F 96% 29.83 in 0.5 mi ESE 6.9 mph - N/A Fog Fog
4:15 AM 63.0 °F - 61.9 °F 96% 29.83 in 0.5 mi ESE 5.8 mph - N/A Fog Fog
4:35 AM 63.0 °F - 61.9 °F 96% 29.83 in 0.5 mi ESE 6.9 mph - N/A Fog Fog
4:55 AM 62.8 °F - 61.7 °F 96% 29.83 in 0.5 mi ESE 8.1 mph - N/A Fog Fog
5:15 AM 62.8 °F - 61.7 °F 96% 29.83 in 0.5 mi ESE 6.9 mph - N/A Fog Fog
5:35 AM 64.4 °F - 63.1 °F 96% 29.83 in 1.5 mi ESE 8.1 mph - N/A   Overcast
5:55 AM 63.9 °F - 62.8 °F 96% 29.84 in 0.8 mi ESE 6.9 mph - N/A   Overcast
6:15 AM 64.4 °F - 63.5 °F 97% 29.84 in 0.8 mi ESE 6.9 mph - N/A   Mostly Cloudy
6:35 AM 64.4 °F - 63.3 °F 96% 29.84 in 1.0 mi ESE 6.9 mph - N/A   Mist
6:55 AM 64.4 °F - 63.1 °F 96% 29.84 in 1.0 mi ESE 6.9 mph - N/A   Mist
7:15 AM 64.8 °F - 63.7 °F 96% 29.84 in 3.0 mi SE 6.9 mph - N/A   Clear
7:35 AM 65.5 °F - 64.4 °F 96% 29.85 in 7.0 mi ESE 5.8 mph - N/A   Clear
7:55 AM 66.2 °F - 65.1 °F 96% 29.85 in 5.0 mi ESE 6.9 mph - N/A   Clear
8:15 AM 67.6 °F - 66.6 °F 96% 29.86 in 10.0 mi SE 8.1 mph - N/A   Clear
8:35 AM 68.9 °F - 67.6 °F 96% 29.87 in 10.0 mi SE 8.1 mph - N/A   Clear
8:55 AM 70.9 °F - 69.6 °F 96% 29.87 in 10.0 mi SSE 6.9 mph - N/A   Clear
9:15 AM 74.1 °F - 69.4 °F 85% 29.88 in 10.0 mi SSE 10.4 mph - N/A   Clear
9:35 AM 75.6 °F - 68.9 °F 80% 29.88 in 10.0 mi South 15.0 mph - N/A   Clear
9:55 AM 77.9 °F - 68.5 °F 73% 29.88 in 10.0 mi South 15.0 mph - N/A   Scattered Clouds
10:15 AM 78.4 °F - 67.6 °F 69% 29.88 in 10.0 mi South 16.1 mph 20.7 mph N/A   Scattered Clouds
10:35 AM 79.7 °F - 67.1 °F 65% 29.88 in 10.0 mi South 13.8 mph 20.7 mph N/A   Scattered Clouds
10:55 AM 80.4 °F 82.7 °F 66.6 °F 63% 29.87 in 10.0 mi SSE 17.3 mph - N/A   Mostly Cloudy
11:15 AM 80.6 °F 82.7 °F 66.2 °F 61% 29.87 in 10.0 mi South 17.3 mph 21.9 mph N/A   Mostly Cloudy
11:35 AM 81.3 °F 83.3 °F 65.8 °F 59% 29.86 in 10.0 mi South 15.0 mph 24.2 mph N/A   Mostly Cloudy
11:55 AM 82.9 °F 84.8 °F 65.3 °F 55% 29.85 in 10.0 mi South 17.3 mph - N/A   Mostly Cloudy
12:15 PM 84.2 °F 85.2 °F 63.3 °F 49% 29.84 in 10.0 mi South 13.8 mph 18.4 mph N/A   Mostly Cloudy
12:35 PM 84.4 °F 85.4 °F 63.3 °F 49% 29.82 in 10.0 mi SSW 11.5 mph 20.7 mph N/A   Scattered Clouds
12:55 PM 84.4 °F 85.2 °F 63.0 °F 48% 29.81 in 10.0 mi South 13.8 mph 21.9 mph N/A   Scattered Clouds
1:15 PM 84.6 °F 85.2 °F 62.2 °F 47% 29.80 in 10.0 mi South 12.7 mph 19.6 mph N/A   Scattered Clouds
1:35 PM 84.7 °F 85.4 °F 62.2 °F 47% 29.79 in 10.0 mi South 10.4 mph - N/A   Scattered Clouds
1:55 PM 85.1 °F 85.7 °F 62.4 °F 46% 29.77 in 10.0 mi SSE 10.4 mph - N/A   Scattered Clouds
2:15 PM 86.2 °F 86.8 °F 62.8 °F 45% 29.77 in 10.0 mi South 16.1 mph 19.6 mph N/A   Mostly Cloudy
2:35 PM 84.4 °F 85.9 °F 64.2 °F 51% 29.76 in 10.0 mi SSE 15.0 mph 19.6 mph N/A   Scattered Clouds
2:55 PM 84.6 °F 85.9 °F 64.0 °F 50% 29.76 in 10.0 mi SSE 16.1 mph 21.9 mph N/A   Scattered Clouds
3:15 PM 85.1 °F 86.4 °F 63.7 °F 49% 29.76 in 10.0 mi SSE 16.1 mph 19.6 mph N/A   Scattered Clouds
3:35 PM 84.4 °F 85.6 °F 64.0 °F 50% 29.76 in 10.0 mi SSE 15.0 mph 20.7 mph N/A   Scattered Clouds
3:55 PM 83.7 °F 84.9 °F 63.7 °F 51% 29.76 in 10.0 mi SSE 16.1 mph 21.9 mph N/A   Scattered Clouds
4:15 PM 82.4 °F 83.9 °F 64.4 °F 54% 29.76 in 10.0 mi SSE 15.0 mph - N/A   Clear
4:35 PM 81.5 °F 83.1 °F 64.4 °F 56% 29.76 in 10.0 mi SSE 18.4 mph 21.9 mph N/A   Clear
4:55 PM 80.8 °F 82.4 °F 64.2 °F 57% 29.77 in 10.0 mi SE 15.0 mph 21.9 mph N/A   Clear
5:15 PM 79.2 °F - 64.9 °F 62% 29.77 in 10.0 mi SE 18.4 mph - N/A   Clear
5:35 PM 77.9 °F - 64.9 °F 64% 29.78 in 10.0 mi SE 17.3 mph - N/A   Clear
5:55 PM 77.0 °F - 65.3 °F 67% 29.79 in 10.0 mi SSE 10.4 mph - N/A   Clear
6:15 PM 76.1 °F - 65.8 °F 70% 29.78 in 10.0 mi SE 13.8 mph - N/A   Clear
6:35 PM 75.4 °F - 66.4 °F 73% 29.79 in 10.0 mi SE 13.8 mph - N/A   Clear
6:55 PM 74.7 °F - 66.4 °F 75% 29.80 in 10.0 mi SE 12.7 mph - N/A   Clear
7:15 PM 74.3 °F - 66.6 °F 77% 29.81 in 10.0 mi SE 10.4 mph - N/A   Clear
7:35 PM 73.4 °F - 66.2 °F 78% 29.81 in 10.0 mi SE 11.5 mph - N/A   Clear
7:55 PM 73.4 °F - 66.6 °F 79% 29.81 in 10.0 mi SE 10.4 mph - N/A   Clear
8:15 PM 73.0 °F - 66.6 °F 80% 29.82 in 10.0 mi SE 10.4 mph - N/A   Clear
8:35 PM 72.7 °F - 66.6 °F 81% 29.83 in 10.0 mi SE 10.4 mph - N/A   Clear
8:55 PM 72.5 °F - 66.4 °F 81% 29.84 in 10.0 mi SSE 9.2 mph - N/A   Clear
9:15 PM 72.1 °F - 66.6 °F 83% 29.85 in 10.0 mi SSE 9.2 mph - N/A   Clear
9:35 PM 71.6 °F - 66.6 °F 84% 29.85 in 10.0 mi SSE 8.1 mph - N/A   Scattered Clouds
9:55 PM 71.2 °F - 66.7 °F 86% 29.85 in 10.0 mi SSE 9.2 mph - N/A   Scattered Clouds
10:35 PM 70.9 °F - 67.1 °F 88% 29.84 in 10.0 mi SSE 9.2 mph - N/A   Clear
10:55 PM 70.9 °F - 67.3 °F 88% 29.84 in 10.0 mi SSE 10.4 mph - N/A   Clear
11:15 PM 70.7 °F - 67.3 °F 89% 29.84 in 10.0 mi SE 9.2 mph - N/A   Clear
11:35 PM 70.2 °F - 66.7 °F 89% 29.83 in 10.0 mi SE 9.2 mph - N/A   Scattered Clouds
11:55 PM 69.8 °F - 66.7 °F 90% 29.83 in 10.0 mi SE 8.1 mph - N/A   Scattered Clouds